Location: Ch�tillon
(48.8024°N, 2.2935°E)
Time: 03:05:55
(UTC+00:00)

CAS-4A - Pass Details

Date: 08 July 2022
Orbit: 521 x 537 km, 43.0° (Epoch: 13 August)

Event Time Altitude Azimuth Distance (km) Brightness Sun altitude
Exits shadow 02:09:42 15° 247° (WSW) 1,449 ? -12.7°
Maximum altitude 02:12:24 32° 190° (S) 904 ? -12.5°
Drops below altitude 10° 02:16:01 10° 126° (SE) 1,757 ? -12.2°
Sets 02:18:23 0° 116° (ESE) 2,647 ? -11.9°
